This demonstration page uses our WeatherBlox Daily Observations layout. Learn more.

Left ArrowRight Arrow

30.21309, -93.2044

Hourly Observations for October 26, 2015

Temp ( °F °C ) Dew Point ( °F °C ) Humidity (%) Winds ( mph kmh ) Pressure ( in mb ) Visibility ( mi km ) Precip ( " mm )
12:15 am 00:15 Cloudy with Drizzle 66 19 65 18.5 97 97 N 14 22 29.56 1001 5 8 0.00 0.00
12:35 am 00:35 Cloudy with Light Rain 66 18.9 65 18.5 98 98 NNE 17 28 29.56 1001 7 11 0.01 0.25
12:55 am 00:55 Cloudy with Light Rain 66 18.8 65 18.5 98 98 NNE 16 26 29.56 1001 3 5 0.02 0.51
1:15 am 01:15 Cloudy with Light Rain 66 18.8 65 18.5 98 98 NNE 15 24 29.53 1000 4 6 0.02 0.51
1:35 am 01:35 Cloudy 66 18.8 65 18.5 98 98 N 17 28 29.53 1000 7 11 0.02 0.51
1:55 am 01:55 Cloudy with Light Rain 66 18.8 65 18.5 98 98 N 16 26 29.53 1000 4 6 0.03 0.76
2:15 am 02:15 Cloudy with Light Rain 65 18.5 64 18 97 97 N 15 24 29.53 1000 4 6 0.00 0.00
2:35 am 02:35 Cloudy with Drizzle 65 18.5 64 18 97 97 N 15 24 29.53 1000 5 8 0.01 0.25
2:55 am 02:55 Cloudy with Rain 65 18.3 64 18 98 98 N 18 30 29.53 1000 5 8 0.01 0.25
3:15 am 03:15 Cloudy with Light Rain 65 18.4 64 18 98 98 N 15 24 29.53 1000 4 6 0.01 0.25
3:35 am 03:35 Cloudy with Rain 65 18.3 64 17.9 98 98 NNW 17 28 29.53 1000 4 6 0.02 0.51
3:55 am 03:55 Cloudy with Light Rain 65 18.1 64 17.8 98 98 NNW 24 39 29.53 1000 3 5 0.03 0.76
4:15 am 04:15 Cloudy with Light Rain 64 18 64 17.5 97 97 N 18 30 29.53 1000 3 5 0.00 0.00
4:35 am 04:35 Cloudy with Light Rain 64 17.7 63 17.3 98 98 NNW 21 33 29.53 1000 3 5 0.00 0.00
4:55 am 04:55 Cloudy with Light Rain 64 17.6 63 17.1 97 97 NNW 23 37 29.56 1001 3 5 0.00 0.00
5:15 am 05:15 Cloudy with Light Rain 64 17.5 63 17.1 98 98 NNW 20 31 29.56 1001 3 5 0.00 0.00
6:00 am 06:00 Cloudy with Mist and Fog 63 17 63 17 100 100 N 18 30 29.56 1001 3 5 0.00 0.00
6:50 am 06:50 Cloudy with Light Rain 64 18 63 17 94 94 NNW 18 30 29.59 1002 3 5 0.00 0.00
7:50 am 07:50 Cloudy with Light Rain 63 17 63 17 100 100 NNW 23 37 29.62 1003 3 5 0.00 0.00
8:50 am 08:50 Cloudy 64 18 63 17 94 94 NNW 17 28 29.62 1003 10 16 0.00 0.00
9:50 am 09:50 Cloudy 64 18 63 17 94 94 NNW 16 26 29.65 1004 10 16 0.00 0.00
10:50 am 10:50 Cloudy with Rain 63 17 61 16 94 94 NW 17 28 29.71 1006 2 3 0.00 0.00
11:45 am 11:45 Cloudy with Light Rain 63 17 63 17 100 100 NW 17 28 29.71 1006 2 3 0.00 0.00
12:55 pm 12:55 Cloudy with Mist and Fog 64 18 63 17 94 94 NNW 23 37 29.71 1006 3 5 0.00 0.00
1:50 pm 13:50 Cloudy 66 19 63 17 88 88 NNW 20 31 29.68 1005 10 16 0.00 0.00
2:50 pm 14:50 Cloudy 68 20 63 17 83 83 NNW 14 22 29.65 1004 10 16 0.00 0.00
3:50 pm 15:50 Cloudy 66 19 63 17 88 88 NNW 16 26 29.68 1005 10 16 0.00 0.00
4:50 pm 16:50 Cloudy 66 19 63 17 88 88 NNW 13 20 29.68 1005 10 16 0.00 0.00
5:50 pm 17:50 Cloudy with Mist and Fog 64 18 64 18 100 100 NW 15 24 29.71 1006 2 3 0.00 0.00
6:50 pm 18:50 Cloudy 64 18 63 17 94 94 NW 12 19 29.74 1007 7 11 0.00 0.00
7:50 pm 19:50 Cloudy 64 18 63 17 94 94 NW 12 19 29.74 1007 7 11 0.00 0.00
8:50 pm 20:50 Cloudy 63 17 63 17 100 100 NW 12 19 29.77 1008 10 16 0.00 0.00
9:50 pm 21:50 Cloudy 63 17 63 17 100 100 NNW 12 19 29.77 1008 10 16 0.00 0.00
10:15 pm 22:15 Cloudy 63 17.3 62 16.4 94 94 NNW 12 19 29.77 1008 10 16 0.00 0.00
10:35 pm 22:35 Cloudy 63 17.4 62 16.5 94 94 NW 12 19 29.77 1008 10 16 0.00 0.00
10:55 pm 22:55 Cloudy 63 17.4 62 16.5 94 94 NW 12 19 29.77 1008 10 16 0.00 0.00
11:15 pm 23:15 Cloudy 63 17.4 62 16.5 94 94 NW 10 17 29.77 1008 10 16 0.00 0.00
11:35 pm 23:35 Cloudy 63 17.4 62 16.7 96 96 NW 12 19 29.77 1008 10 16 0.00 0.00
11:55 pm 23:55 Cloudy 63 17.2 62 16.7 97 97 NW 10 17 29.77 1008 7 11 0.00 0.00

Powered by AerisWeather